AirNav   Pilot Hours Calculator
 
 1075 users online  

WN29 Blue Ribbon Airport
Sequim, Washington, USA

GOING TO SEQUIM?


FAA INFORMATION EFFECTIVE 22 APRIL 2021

Location

FAA Identifier: WN29
Lat/Long: 48-07-48.9000N 123-12-19.8750W
48-07.815000N 123-12.331250W
48.1302500,-123.2055208
(estimated)
Elevation: 103 ft. / 31 m (estimated)
Variation: 21E (1985)
From city: 5 miles NW of SEQUIM, WA
Time zone: UTC -7 (UTC -8 during Standard Time)
Zip code: 98382

Airport Operations

Airport use: Private use. Permission required prior to landing
Activation date: 01/1983
Control tower: no
ARTCC: SEATTLE CENTER
FSS: SEATTLE FLIGHT SERVICE STATION
Attendance: UNATNDD
Wind indicator: yes
Segmented circle: no

Airport Communications

WX AWOS-3P at NOW (8 nm W): 118.325 (360-457-7529)
WX ASOS at CLM (12 nm W): 135.175 (360-457-1070)
WX AWOS-3P at 0S9 (16 nm E): 119.025 (360-379-1199)

Nearby radio navigation aids

VOR radial/distance  VOR name  Freq  Var
CVVr231/20.4PENN COVE VOR/DME117.2019E
YYJr146/37.5VICTORIA VOR/DME113.7017E
PAEr269/39.3PAINE VOR/DME110.6020E

 
NDB name  Hdg/Dist  Freq  Var  ID
EDIZ HOOK077/7.933817ENOW -. --- .--
FRIDAY HARBOR181/24.028417EFHR ..-. .... .-.
SKAGIT/BAY VIEW221/37.424016EBVS -... ...- ...

Airport Services

Runway Information

Runway 7/25

Dimensions: 1961 x 60 ft. / 598 x 18 m
Surface: turf, in good condition
RUNWAY 7  RUNWAY 25
Latitude: 48-07.815333N48-07.814667N
Longitude: 123-12.572167W123-12.090333W
Elevation: 103.0 ft.103.0 ft.
Traffic pattern: leftleft
Touchdown point: yes, no lightsyes, no lights

Airport Ownership and Management from official FAA records

Ownership: Privately-owned
Owner: BLUE RIBBON FARMS
PO BOX 3141
SEQUIM, WA 98382
Phone 3017882771
PROPERTY OWNERS ASSN., INC.
Manager: MARK CHENEY
118 GREYWOLF ROAD
SEQUIM, WA 98382
Phone 3017882771

Airport Operational Statistics

Aircraft based on the field: 11
Single engine airplanes: 10
Multi engine airplanes: 1
    

Additional Remarks

WILDLIFE (DEER) ON AND IN VCNTY OF ARPT, EAGLES AND SEAGULLS ALSO ON AND IN VCNTY OF ARPT.
FOR CD CTC SEATTLE ARTCC AT 253-351-3694.

Instrument Procedures

There are no published instrument procedures at WN29.

Some nearby airports with instrument procedures:

KNOW - Port Angeles Coast Guard Air Station Airport (8 nm W)
KCLM - William R Fairchild International Airport (12 nm W)
0S9 - Jefferson County International Airport (16 nm E)
KOKH - AJ Eisenberg Airport (22 nm E)
KFHR - Friday Harbor Airport (25 nm N)
 
Loc | Ops | Rwys | IFR | FBO | Links
Com | Nav | Svcs | Stats | Notes
Area around WN29 (Blue Ribbon Airport)
 
Road maps at: MapQuest Bing Google
 
Aerial photo
WARNING: Photo may not be current or correct
Aerial photo of WN29 (Blue Ribbon Airport)
Photo by Dave Woodcock, Greywolf Aerial Photography www.greywolfphotography.com
Taken in June 2005

Do you have a better or more recent aerial photo of Blue Ribbon Airport that you would like to share? If so, please send us your photo.

 
Sectional chart

 
Airport distance calculator
Flying to Blue Ribbon Airport? Find the distance to fly.

From to WN29

Sunrise and sunset
Times for 08-May-2021
 Local
(UTC-7)
 Zulu
(UTC)
Morning civil twilight05:0812:08
Sunrise05:4412:44
Sunset20:3503:35
Evening civil twilight21:1104:11

Current date and time
Zulu (UTC)  08-May-2021 19:14:59
Local (UTC-7)  08-May-2021 12:14:59
 
METAR
KCLM 
12nm W 
081853Z AUTO 02004KT 10SM SCT055 OVC075 10/04 A3038 RMK AO2 SLP290 T01000039
CWQK 
15nm NW 
081800Z AUTO 27009KT 09/ RMK AO1 SLP284 T0092 51004
KNOW 
16nm W 
081855Z AUTO 35005KT 10SM SCT050 BKN055 OVC090 11/04 A3039 RMK AO2 T01100043
K0S9 
16nm E 
081855Z AUTO 08010KT 10SM BKN100 OVC120 12/06 A3036 RMK AO2
CWLM 
18nm N 
081800Z AUTO 19008KT 11/04 RMK AO1 SLP284 T01060044 52004
CYWH 
18nm N 
081800Z 15010KT 15SM FEW040 BKN090 BKN220 10/05 A3037 RMK CU2AC4CI1 SLP285
CWPF 
19nm NW 
081845Z AUTO 16009KT 10/05 RMK AO1 SLP282 T01000053 53003
CWYJ 
19nm N 
081800Z AUTO 16004KT 12/06 RMK AO1 SLP284 T01150063 51004
TAF
KCLM 
12nm W 
081720Z 0818/0918 27008KT P6SM SCT080 FM082000 27008KT P6SM BKN045 OVC080 FM090600 27008KT P6SM VCSH SCT045 BKN080 FM091200 VRB04KT P6SM OVC020
CYWH 
18nm N 
081410Z 0814/0902 24010KT P6SM FEW030 SCT100 BKN180 FM081800 19010KT P6SM BKN070 FM082100 19008KT P6SM BKN050 TEMPO 0821/0902 P6SM -RA OVC040 RMK NXT FCST BY 082100Z
NOTAMs
Click for the latest NOTAMs
NOTAMs are issued by the DoD/FAA and will open in a separate window not controlled by AirNav.

 

 
 

Would you like to see your business listed on this page?

 If your business provides an interesting product or service to pilots, flight crews, aircraft, or users of the Blue Ribbon Airport, you should consider listing it here.  To start the listing process, click on the button below
 
Add a business
 

Other Pages about Blue Ribbon Airport

www.blueribbonfarmsassoc.com
 
Update a link
 
Copyright © AirNav, LLC. All rights reserved. Privacy Policy  Contact